QPF
0.02 0.02 0.02 0.04 0.04 0.04 0.04 0.04 0.03 0.03 0.03 0.03 0.05 0.06 0.07 0.07 0.08 0.08 0.07 0.07 0.08 0.08 0.10 0.13 0.13 0.13 0.12 0.12 0.14 0.16 0.19 0.19 0.19 0.18 0.14 0.12 0.12 0.10 0.07 0.06 0.04 0.05 0.06
0.01 0.02 0.03 0.05 0.06 0.07 0.05 0.04 0.03 0.04 0.04 0.04 0.04 0.05 0.06 0.07 0.07 0.06 0.07 0.07 0.07 0.08 0.09 0.11 0.11 0.12 0.14 0.13 0.13 0.15 0.18 0.19 0.16 0.13 0.13 0.11 0.11 0.10 0.09 0.07 0.05 0.05 0.06
0.02 0.02 0.03 0.04 0.05 0.07 0.07 0.04 0.04 0.04 0.05 0.05 0.05 0.05 0.05 0.06 0.06 0.07 0.07 0.07 0.07 0.08 0.09 0.09 0.08 0.10 0.12 0.12 0.12 0.12 0.14 0.14 0.13 0.11 0.10 0.09 0.08 0.07 0.07 0.07 0.06 0.08 0.06
0.03 0.03 0.03 0.03 0.05 0.06 0.06 0.05 0.04 0.04 0.05 0.05 0.04 0.04 0.04 0.05 0.06 0.06 0.06 0.06 0.07 0.08 0.09 0.08 0.07 0.07 0.07 0.08 0.09 0.10 0.10 0.13 0.12 0.10 0.09 0.09 0.08 0.08 0.10 0.10 0.10 0.09 0.08
0.02 0.02 0.02 0.03 0.04 0.05 0.07 0.06 0.03 0.03 0.04 0.04 0.04 0.04 0.04 0.03 0.03 0.05 0.05 0.06 0.06 0.07 0.08 0.07 0.05 0.05 0.05 0.06 0.05 0.06 0.08 0.10 0.09 0.10 0.10 0.10 0.13 0.15 0.18 0.17 0.14 0.11 0.10
0.04 0.03 0.02 0.02 0.02 0.03 0.03 0.03 0.03 0.03 0.04 0.04 0.04 0.04 0.04 0.03 0.04 0.05 0.05 0.04 0.05 0.07 0.07 0.07 0.05 0.05 0.04 0.04 0.04 0.04 0.05 0.07 0.10 0.13 0.15 0.18 0.22 0.23 0.21 0.16 0.13 0.12 0.10
0.09 0.08 0.04 0.02 0.02 0.02 0.02 0.02 0.02 0.03 0.04 0.04 0.04 0.04 0.05 0.05 0.06 0.05 0.05 0.05 0.08 0.09 0.08 0.08 0.05 0.04 0.04 0.04 0.04 0.04 0.03 0.03 0.04 0.06 0.09 0.12 0.15 0.17 0.15 0.13 0.12 0.10 0.09
0.12 0.09 0.04 0.02 0.01 0.01 0.01 0.02 0.02 0.03 0.03 0.04 0.04 0.04 0.04 0.04 0.04 0.04 0.04 0.05 0.07 0.07 0.06 0.05 0.05 0.04 0.04 0.05 0.05 0.05 0.05 0.05 0.04 0.03 0.04 0.06 0.08 0.08 0.08 0.08 0.08 0.08 0.08
0.09 0.04 0.02 0.01 0.01 0.01 0.01 0.02 0.03 0.03 0.04 0.04 0.04 0.05 0.04 0.04 0.04 0.03 0.02 0.03 0.04 0.04 0.03 0.03 0.04 0.04 0.05 0.03 0.04 0.06 0.06 0.06 0.04 0.03 0.03 0.03 0.03 0.05 0.06 0.08 0.10 0.11 0.11
0.04 0.02 0.01 0.01 0.01 0.01 0.01 0.02 0.03 0.04 0.04 0.05 0.06 0.06 0.05 0.04 0.04 0.03 0.02 0.03 0.05 0.04 0.04 0.04 0.05 0.03 0.03 0.02 0.03 0.04 0.04 0.05 0.05 0.05 0.05 0.05 0.05 0.06 0.08 0.10 0.11 0.11 0.09
0.02 0.02 0.02 0.02 0.01 0.01 0.01 0.02 0.03 0.04 0.05 0.08 0.08 0.07 0.06 0.04 0.04 0.03 0.02 0.02 0.03 0.04 0.03 0.03 0.02 0.02 0.02 0.02 0.03 0.04 0.05 0.05 0.05 0.04 0.03 0.02 0.02 0.02 0.03 0.04 0.05 0.05 0.05
0.02 0.02 0.01 0.02 0.01 0.01 0.02 0.03 0.04 0.07 0.11 0.13 0.12 0.11 0.08 0.06 0.04 0.03 0.02 0.01 0.01 0.02 0.03 0.02 0.02 0.02 0.03 0.03 0.03 0.03 0.04 0.04 0.04 0.04 0.03 0.03 0.03 0.02 0.02 0.02 0.03 0.04 0.04
0.03 0.02 0.02 0.01 0.01 0.02 0.04 0.04 0.06 0.08 0.11 0.10 0.08 0.09 0.08 0.06 0.04 0.02 0.01 0.01 0.01 0.01 0.01 0.01 0.02 0.02 0.03 0.04 0.05 0.04 0.04 0.04 0.03 0.04 0.04 0.04 0.04 0.04 0.03 0.03 0.04 0.05 0.06
0.02 0.02 0.02 0.02 0.02 0.03 0.04 0.04 0.05 0.05 0.05 0.05 0.04 0.05 0.06 0.05 0.04 0.02 0.02 0.02 0.01 0.01 0.01 0.01 0.01 0.02 0.03 0.03 0.03 0.03 0.02 0.01 0.02 0.02 0.02 0.02 0.02 0.02 0.02 0.02 0.03 0.04 0.06
0.03 0.04 0.03 0.03 0.03 0.03 0.03 0.04 0.03 0.03 0.03 0.03 0.03 0.03 0.04 0.04 0.04 0.04 0.03 0.02 0.01 0.01 0.00 0.01 0.01 0.02 0.03 0.02 0.02 0.01 0.01 0.01 0.01 0.01 0.01 0.02 0.02 0.02 0.03 0.03 0.04 0.04 0.04
0.04 0.04 0.04 0.03 0.04 0.04 0.04 0.04 0.04 0.04 0.04 0.04 0.03 0.03 0.03 0.03 0.03 0.03 0.02 0.01 0.01 0.00 0.00 0.01 0.01 0.01 0.02 0.02 0.01 0.01 0.01 0.01 0.02 0.02 0.02 0.02 0.03 0.03 0.04 0.04 0.04 0.03 0.03
0.04 0.04 0.04 0.03 0.03 0.04 0.03 0.03 0.03 0.04 0.04 0.03 0.02 0.02 0.02 0.02 0.02 0.01 0.00 0.00 0.00 0.00 0.00 0.01 0.01 0.01 0.02 0.02 0.01 0.01 0.01 0.02 0.02 0.03 0.04 0.04 0.04 0.04 0.03 0.04 0.04 0.04 0.03
0.05 0.05 0.04 0.04 0.04 0.04 0.04 0.04 0.04 0.04 0.03 0.02 0.02 0.01 0.01 0.01 0.01 0.01 0.00 0.00 0.00 0.00 0.01 0.01 0.01 0.01 0.01 0.01 0.01 0.01 0.02 0.02 0.02 0.02 0.02 0.02 0.02 0.02 0.03 0.03 0.03 0.04 0.04
0.05 0.06 0.07 0.07 0.05 0.04 0.05 0.05 0.05 0.04 0.04 0.03 0.02 0.01 0.01 0.01 0.01 0.00 0.00 0.00 0.01 0.01 0.01 0.01 0.01 0.02 0.01 0.01 0.01 0.02 0.02 0.02 0.02 0.02 0.02 0.02 0.02 0.03 0.03 0.03 0.03 0.04 0.04
0.05 0.04 0.05 0.07 0.10 0.10 0.08 0.07 0.07 0.07 0.06 0.05 0.03 0.02 0.01 0.01 0.01 0.01 0.01 0.01 0.01 0.01 0.02 0.02 0.02 0.02 0.02 0.02 0.02 0.02 0.02 0.02 0.02 0.02 0.02 0.02 0.02 0.02 0.02 0.03 0.03 0.03 0.03
0.04 0.04 0.04 0.05 0.06 0.07 0.08 0.08 0.08 0.11 0.12 0.10 0.07 0.05 0.03 0.02 0.01 0.01 0.01 0.01 0.01 0.02 0.02 0.02 0.02 0.03 0.03 0.02 0.02 0.02 0.01 0.01 0.01 0.01 0.02 0.02 0.02 0.02 0.03 0.03 0.03 0.03 0.03
0.03 0.03 0.03 0.04 0.05 0.06 0.05 0.05 0.07 0.10 0.12 0.12 0.10 0.09 0.06 0.05 0.04 0.02 0.02 0.01 0.01 0.01 0.02 0.02 0.02 0.02 0.02 0.02 0.02 0.02 0.01 0.01 0.01 0.01 0.01 0.02 0.02 0.02 0.02 0.03 0.03 0.03 0.03
0.02 0.02 0.02 0.03 0.04 0.05 0.05 0.06 0.06 0.08 0.09 0.09 0.07 0.06 0.05 0.04 0.03 0.03 0.02 0.02 0.02 0.02 0.02 0.02 0.01 0.01 0.01 0.01 0.01 0.01 0.02 0.01 0.01 0.01 0.01 0.01 0.02 0.02 0.03 0.03 0.03 0.03 0.03
0.04 0.04 0.03 0.05 0.05 0.06 0.06 0.06 0.06 0.06 0.05 0.05 0.05 0.04 0.03 0.03 0.03 0.03 0.02 0.02 0.02 0.01 0.01 0.01 0.01 0.01 0.01 0.01 0.01 0.01 0.01 0.01 0.01 0.01 0.01 0.01 0.02 0.02 0.03 0.03 0.03 0.03 0.03
0.05 0.05 0.04 0.05 0.06 0.06 0.07 0.07 0.07 0.06 0.04 0.03 0.03 0.03 0.02 0.03 0.03 0.03 0.02 0.01 0.00 0.00 0.00 0.01 0.01 0.01 0.01 0.01 0.01 0.01 0.01 0.01 0.01 0.01 0.01 0.01 0.01 0.02 0.02 0.02 0.02 0.02 0.02
0.03 0.04 0.04 0.04 0.04 0.04 0.05 0.06 0.06 0.05 0.02 0.02 0.02 0.02 0.02 0.01 0.01 0.01 0.00 0.00 0.00 0.00 0.00 0.00 0.00 0.00 0.00 0.00 0.01 0.01 0.01 0.01 0.01 0.01 0.01 0.01 0.01 0.02 0.01 0.01 0.02 0.02 0.02
MSLP
1011.90 1012.24 1012.58 1012.87 1013.06 1013.16 1013.17 1013.11 1013.03 1012.97 1012.94 1012.95 1013.00 1013.04 1013.05 1013.00 1012.88 1012.67 1012.41 1012.13 1011.87 1011.66 1011.52 1011.45 1011.44 1011.46 1011.48 1011.48 1011.43 1011.34 1011.24 1011.15 1011.12 1011.17 1011.34 1011.63 1012.03 1012.50 1013.01 1013.51 1013.97 1014.35 1014.64
1011.72 1012.11 1012.49 1012.81 1013.06 1013.21 1013.27 1013.26 1013.23 1013.20 1013.20 1013.22 1013.26 1013.30 1013.30 1013.24 1013.09 1012.86 1012.57 1012.24 1011.91 1011.62 1011.38 1011.20 1011.09 1011.01 1010.96 1010.90 1010.84 1010.76 1010.69 1010.66 1010.69 1010.80 1011.02 1011.36 1011.78 1012.28 1012.81 1013.33 1013.80 1014.21 1014.54
1011.63 1012.09 1012.52 1012.89 1013.18 1013.37 1013.47 1013.50 1013.50 1013.49 1013.50 1013.54 1013.58 1013.62 1013.62 1013.56 1013.41 1013.18 1012.87 1012.52 1012.14 1011.77 1011.45 1011.17 1010.95 1010.77 1010.63 1010.50 1010.39 1010.30 1010.23 1010.22 1010.28 1010.42 1010.68 1011.03 1011.47 1011.97 1012.50 1013.03 1013.52 1013.95 1014.31
1011.67 1012.19 1012.68 1013.09 1013.40 1013.61 1013.72 1013.77 1013.78 1013.79 1013.81 1013.85 1013.91 1013.96 1013.97 1013.92 1013.79 1013.58 1013.28 1012.91 1012.51 1012.09 1011.70 1011.33 1011.01 1010.74 1010.50 1010.29 1010.12 1009.98 1009.90 1009.87 1009.93 1010.08 1010.33 1010.67 1011.09 1011.58 1012.09 1012.60 1013.09 1013.53 1013.93
1011.82 1012.41 1012.94 1013.37 1013.68 1013.88 1013.99 1014.03 1014.04 1014.05 1014.07 1014.13 1014.20 1014.26 1014.30 1014.28 1014.19 1014.00 1013.72 1013.37 1012.96 1012.52 1012.07 1011.64 1011.24 1010.88 1010.56 1010.27 1010.03 1009.84 1009.70 1009.64 1009.66 1009.77 1009.98 1010.28 1010.65 1011.08 1011.55 1012.03 1012.51 1012.96 1013.39
1012.09 1012.72 1013.26 1013.68 1013.97 1014.14 1014.22 1014.24 1014.24 1014.24 1014.27 1014.33 1014.42 1014.51 1014.58 1014.60 1014.54 1014.39 1014.15 1013.82 1013.41 1012.97 1012.50 1012.03 1011.57 1011.14 1010.75 1010.40 1010.09 1009.84 1009.64 1009.51 1009.46 1009.50 1009.63 1009.85 1010.14 1010.49 1010.89 1011.33 1011.78 1012.24 1012.69
1012.45 1013.09 1013.61 1013.99 1014.23 1014.35 1014.39 1014.37 1014.35 1014.35 1014.38 1014.46 1014.57 1014.70 1014.81 1014.86 1014.84 1014.73 1014.52 1014.21 1013.82 1013.38 1012.90 1012.41 1011.92 1011.45 1011.01 1010.61 1010.25 1009.93 1009.66 1009.45 1009.32 1009.26 1009.28 1009.38 1009.56 1009.81 1010.13 1010.50 1010.92 1011.38 1011.86
1012.88 1013.49 1013.96 1014.27 1014.44 1014.50 1014.48 1014.44 1014.39 1014.39 1014.44 1014.54 1014.68 1014.84 1014.98 1015.06 1015.07 1014.98 1014.79 1014.50 1014.13 1013.69 1013.21 1012.72 1012.22 1011.74 1011.28 1010.84 1010.43 1010.06 1009.72 1009.42 1009.18 1009.01 1008.90 1008.87 1008.92 1009.06 1009.29 1009.59 1009.98 1010.43 1010.94
1013.34 1013.89 1014.27 1014.50 1014.59 1014.58 1014.52 1014.45 1014.40 1014.41 1014.48 1014.61 1014.79 1014.97 1015.13 1015.23 1015.25 1015.16 1014.97 1014.69 1014.31 1013.88 1013.41 1012.92 1012.42 1011.94 1011.47 1011.02 1010.58 1010.16 1009.76 1009.38 1009.03 1008.73 1008.49 1008.32 1008.25 1008.27 1008.40 1008.64 1008.99 1009.44 1009.99
1013.80 1014.25 1014.53 1014.67 1014.69 1014.62 1014.53 1014.45 1014.42 1014.45 1014.56 1014.72 1014.93 1015.13 1015.30 1015.40 1015.40 1015.30 1015.09 1014.78 1014.39 1013.95 1013.48 1012.99 1012.51 1012.04 1011.57 1011.12 1010.66 1010.21 1009.74 1009.28 1008.84 1008.42 1008.05 1007.75 1007.55 1007.46 1007.50 1007.69 1008.01 1008.47 1009.04
1014.22 1014.56 1014.74 1014.79 1014.74 1014.64 1014.54 1014.47 1014.46 1014.54 1014.69 1014.89 1015.12 1015.34 1015.50 1015.58 1015.55 1015.41 1015.16 1014.81 1014.40 1013.93 1013.45 1012.96 1012.49 1012.03 1011.58 1011.12 1010.66 1010.18 1009.67 1009.14 1008.60 1008.08 1007.59 1007.18 1006.86 1006.68 1006.65 1006.78 1007.09 1007.55 1008.15
1014.57 1014.80 1014.89 1014.86 1014.77 1014.65 1014.56 1014.52 1014.56 1014.68 1014.88 1015.12 1015.37 1015.59 1015.74 1015.78 1015.71 1015.52 1015.21 1014.81 1014.35 1013.85 1013.35 1012.86 1012.39 1011.95 1011.51 1011.06 1010.59 1010.09 1009.54 1008.96 1008.34 1007.73 1007.15 1006.63 1006.22 1005.96 1005.87 1005.96 1006.25 1006.71 1007.33
1014.82 1014.96 1014.97 1014.89 1014.77 1014.66 1014.59 1014.59 1014.68 1014.86 1015.10 1015.38 1015.64 1015.85 1015.98 1015.98 1015.85 1015.60 1015.23 1014.78 1014.27 1013.75 1013.23 1012.73 1012.27 1011.83 1011.40 1010.97 1010.50 1009.98 1009.41 1008.77 1008.10 1007.41 1006.74 1006.15 1005.66 1005.33 1005.19 1005.25 1005.51 1005.97 1006.60
1014.99 1015.04 1014.99 1014.88 1014.75 1014.65 1014.61 1014.66 1014.80 1015.02 1015.30 1015.60 1015.87 1016.07 1016.16 1016.13 1015.95 1015.64 1015.22 1014.72 1014.18 1013.63 1013.09 1012.60 1012.15 1011.72 1011.31 1010.89 1010.42 1009.89 1009.30 1008.63 1007.90 1007.15 1006.42 1005.75 1005.20 1004.81 1004.62 1004.64 1004.87 1005.31 1005.93
1015.05 1015.04 1014.95 1014.82 1014.69 1014.61 1014.60 1014.69 1014.86 1015.12 1015.42 1015.73 1015.99 1016.17 1016.23 1016.15 1015.93 1015.59 1015.13 1014.61 1014.05 1013.49 1012.97 1012.48 1012.05 1011.65 1011.25 1010.85 1010.39 1009.86 1009.24 1008.55 1007.78 1006.98 1006.19 1005.46 1004.85 1004.40 1004.15 1004.13 1004.32 1004.73 1005.33
1015.04 1014.98 1014.86 1014.72 1014.59 1014.52 1014.53 1014.64 1014.83 1015.10 1015.40 1015.69 1015.93 1016.09 1016.12 1016.01 1015.77 1015.40 1014.93 1014.41 1013.86 1013.33 1012.83 1012.38 1011.97 1011.61 1011.24 1010.86 1010.41 1009.89 1009.26 1008.54 1007.74 1006.90 1006.05 1005.27 1004.59 1004.08 1003.77 1003.69 1003.83 1004.20 1004.75
1014.97 1014.87 1014.73 1014.57 1014.44 1014.38 1014.40 1014.50 1014.69 1014.94 1015.21 1015.48 1015.69 1015.80 1015.80 1015.68 1015.42 1015.05 1014.60 1014.11 1013.59 1013.10 1012.65 1012.26 1011.91 1011.58 1011.26 1010.91 1010.48 1009.96 1009.33 1008.59 1007.76 1006.88 1005.98 1005.13 1004.39 1003.81 1003.44 1003.29 1003.37 1003.68 1004.18
1014.85 1014.73 1014.56 1014.39 1014.26 1014.19 1014.19 1014.28 1014.44 1014.65 1014.88 1015.10 1015.26 1015.33 1015.31 1015.16 1014.91 1014.56 1014.14 1013.69 1013.24 1012.81 1012.44 1012.10 1011.82 1011.55 1011.27 1010.95 1010.55 1010.04 1009.41 1008.66 1007.80 1006.87 1005.93 1005.02 1004.21 1003.56 1003.11 1002.88 1002.89 1003.14 1003.58
1014.70 1014.55 1014.37 1014.19 1014.05 1013.97 1013.95 1014.01 1014.12 1014.28 1014.45 1014.60 1014.71 1014.74 1014.68 1014.52 1014.27 1013.95 1013.58 1013.19 1012.81 1012.46 1012.15 1011.90 1011.68 1011.47 1011.24 1010.96 1010.58 1010.08 1009.45 1008.69 1007.80 1006.84 1005.84 1004.88 1004.00 1003.27 1002.74 1002.44 1002.38 1002.56 1002.96
1014.52 1014.35 1014.17 1013.99 1013.84 1013.74 1013.70 1013.72 1013.78 1013.87 1013.98 1014.06 1014.11 1014.09 1013.99 1013.82 1013.58 1013.29 1012.97 1012.64 1012.32 1012.05 1011.82 1011.63 1011.47 1011.32 1011.13 1010.88 1010.53 1010.04 1009.41 1008.63 1007.72 1006.73 1005.69 1004.66 1003.73 1002.93 1002.32 1001.95 1001.82 1001.94 1002.29
1014.31 1014.14 1013.96 1013.79 1013.64 1013.53 1013.47 1013.45 1013.46 1013.50 1013.54 1013.56 1013.54 1013.47 1013.34 1013.15 1012.92 1012.65 1012.36 1012.08 1011.83 1011.61 1011.45 1011.31 1011.21 1011.09 1010.94 1010.71 1010.37 1009.89 1009.25 1008.47 1007.54 1006.52 1005.45 1004.38 1003.39 1002.54 1001.87 1001.43 1001.24 1001.31 1001.62
1014.07 1013.91 1013.75 1013.59 1013.46 1013.35 1013.27 1013.23 1013.20 1013.18 1013.16 1013.12 1013.05 1012.93 1012.77 1012.57 1012.33 1012.07 1011.81 1011.57 1011.36 1011.19 1011.06 1010.96 1010.89 1010.79 1010.66 1010.44 1010.10 1009.63 1008.99 1008.20 1007.28 1006.24 1005.15 1004.06 1003.03 1002.14 1001.42 1000.93 1000.70 1000.72 1001.00
1013.79 1013.65 1013.52 1013.39 1013.27 1013.18 1013.10 1013.04 1012.98 1012.93 1012.86 1012.77 1012.65 1012.50 1012.30 1012.08 1011.84 1011.59 1011.34 1011.12 1010.93 1010.78 1010.68 1010.60 1010.53 1010.45 1010.32 1010.10 1009.77 1009.29 1008.67 1007.89 1006.97 1005.94 1004.85 1003.76 1002.72 1001.81 1001.07 1000.55 1000.27 1000.25 1000.50
1013.46 1013.35 1013.25 1013.15 1013.06 1012.98 1012.90 1012.83 1012.76 1012.68 1012.58 1012.46 1012.30 1012.12 1011.91 1011.67 1011.42 1011.17 1010.93 1010.72 1010.55 1010.41 1010.31 1010.24 1010.17 1010.09 1009.95 1009.73 1009.41 1008.94 1008.33 1007.57 1006.68 1005.69 1004.63 1003.56 1002.54 1001.63 1000.89 1000.35 1000.05 1000.00 1000.20
1013.07 1012.98 1012.91 1012.83 1012.76 1012.69 1012.62 1012.55 1012.46 1012.36 1012.24 1012.10 1011.93 1011.73 1011.50 1011.26 1011.01 1010.77 1010.54 1010.34 1010.17 1010.04 1009.95 1009.87 1009.81 1009.72 1009.59 1009.38 1009.07 1008.63 1008.05 1007.34 1006.49 1005.55 1004.55 1003.54 1002.57 1001.69 1000.97 1000.43 1000.11 1000.03 1000.19
1012.58 1012.52 1012.45 1012.39 1012.33 1012.26 1012.19 1012.11 1012.01 1011.90 1011.77 1011.61 1011.43 1011.23 1011.01 1010.78 1010.54 1010.32 1010.11 1009.92 1009.77 1009.65 1009.57 1009.50 1009.44 1009.37 1009.25 1009.06 1008.78 1008.38 1007.86 1007.21 1006.45 1005.59 1004.67 1003.73 1002.83 1002.01 1001.32 1000.80 1000.48 1000.37 1000.48
Thickness
5790 5786 5782 5779 5776 5772 5768 5765 5763 5760 5757 5754 5752 5749 5748 5746 5744 5742 5741 5739 5736 5734 5733 5731 5729 5728 5725 5725 5724 5722 5719 5715 5708 5708 5710 5709 5707 5705 5702 5700 5698 5696 5692
5790 5785 5781 5778 5774 5770 5766 5764 5761 5758 5755 5752 5749 5745 5743 5741 5740 5738 5736 5734 5731 5729 5727 5726 5723 5723 5720 5719 5718 5715 5713 5712 5707 5702 5702 5701 5700 5698 5696 5693 5691 5688 5686
5789 5783 5778 5775 5771 5767 5764 5762 5759 5755 5752 5749 5745 5742 5739 5737 5734 5733 5731 5728 5726 5724 5722 5720 5718 5716 5714 5713 5711 5710 5709 5707 5704 5700 5697 5695 5694 5692 5689 5686 5684 5681 5679
5787 5781 5775 5771 5768 5765 5762 5759 5755 5752 5748 5745 5742 5739 5736 5733 5729 5727 5725 5723 5721 5719 5717 5715 5712 5710 5708 5706 5705 5704 5702 5700 5698 5695 5692 5689 5686 5684 5681 5677 5674 5673 5671
5783 5778 5773 5770 5766 5763 5759 5756 5752 5749 5745 5742 5738 5734 5732 5728 5724 5721 5719 5718 5715 5712 5710 5708 5706 5703 5702 5700 5698 5696 5695 5692 5690 5687 5684 5681 5678 5675 5672 5671 5667 5665 5662
5778 5774 5771 5766 5762 5758 5755 5752 5748 5744 5741 5737 5734 5729 5725 5722 5717 5715 5713 5711 5709 5707 5704 5701 5700 5697 5695 5693 5691 5690 5688 5686 5683 5680 5677 5673 5671 5669 5668 5666 5661 5657 5652
5775 5769 5766 5762 5758 5755 5752 5747 5743 5739 5735 5731 5727 5723 5719 5714 5711 5709 5707 5706 5703 5700 5698 5695 5694 5692 5688 5687 5685 5683 5681 5679 5677 5674 5671 5668 5665 5664 5661 5658 5655 5652 5648
5771 5766 5762 5758 5754 5751 5747 5742 5739 5735 5730 5726 5722 5717 5713 5708 5705 5703 5700 5700 5697 5694 5691 5688 5686 5683 5681 5679 5678 5676 5674 5672 5671 5669 5666 5663 5661 5658 5656 5653 5650 5646 5643
5767 5763 5759 5755 5750 5746 5741 5737 5734 5730 5725 5721 5717 5712 5707 5702 5698 5696 5694 5693 5690 5687 5684 5681 5679 5676 5674 5673 5671 5669 5666 5664 5663 5662 5660 5657 5654 5651 5648 5645 5641 5637 5632
5763 5760 5756 5752 5746 5741 5737 5733 5730 5725 5721 5716 5710 5706 5701 5696 5692 5690 5687 5687 5684 5681 5678 5675 5672 5669 5668 5665 5664 5662 5658 5656 5655 5653 5651 5649 5646 5643 5641 5638 5634 5629 5625
5759 5755 5751 5746 5742 5737 5733 5728 5724 5720 5715 5710 5705 5701 5697 5691 5686 5683 5681 5680 5678 5675 5672 5670 5666 5663 5661 5658 5657 5654 5651 5649 5648 5646 5644 5641 5638 5636 5633 5630 5627 5623 5618
5752 5748 5744 5740 5737 5733 5727 5722 5719 5714 5709 5704 5700 5695 5691 5687 5682 5678 5675 5672 5671 5669 5666 5663 5659 5656 5654 5652 5650 5648 5646 5644 5642 5639 5636 5633 5630 5627 5624 5622 5619 5615 5612
5744 5740 5737 5733 5730 5726 5721 5716 5712 5708 5704 5700 5695 5690 5685 5682 5677 5672 5669 5666 5663 5661 5658 5655 5652 5649 5647 5645 5643 5641 5639 5636 5634 5631 5627 5625 5623 5620 5617 5614 5611 5607 5603
5736 5732 5730 5726 5722 5718 5715 5711 5706 5702 5698 5695 5690 5685 5681 5676 5671 5666 5662 5659 5655 5654 5651 5647 5645 5642 5640 5638 5636 5634 5631 5628 5626 5623 5621 5619 5616 5613 5609 5606 5601 5598 5593
5729 5725 5722 5719 5715 5709 5705 5700 5697 5692 5691 5687 5684 5680 5675 5669 5663 5658 5655 5653 5650 5646 5643 5642 5639 5637 5634 5631 5629 5627 5624 5621 5618 5616 5613 5610 5607 5604 5600 5597 5593 5589 5585
5721 5718 5716 5713 5709 5704 5698 5691 5685 5683 5679 5677 5675 5672 5666 5661 5656 5653 5649 5646 5643 5640 5638 5636 5633 5630 5627 5624 5621 5619 5616 5612 5609 5607 5605 5602 5599 5595 5592 5589 5585 5581 5576
5716 5713 5711 5707 5703 5699 5694 5688 5680 5673 5669 5666 5664 5662 5658 5653 5649 5645 5642 5639 5637 5634 5632 5630 5627 5623 5620 5617 5614 5611 5607 5604 5600 5598 5595 5592 5590 5587 5584 5580 5576 5572 5568
5709 5707 5704 5701 5699 5695 5690 5685 5680 5674 5667 5661 5655 5652 5650 5646 5642 5638 5634 5631 5631 5629 5626 5623 5620 5616 5613 5609 5606 5603 5599 5595 5592 5588 5586 5583 5580 5578 5575 5571 5568 5564 5560
5703 5701 5699 5697 5694 5691 5686 5681 5676 5671 5665 5658 5651 5645 5641 5637 5633 5629 5626 5626 5625 5622 5620 5616 5613 5609 5605 5601 5597 5593 5590 5586 5582 5579 5577 5573 5571 5568 5566 5563 5560 5555 5552
5696 5693 5691 5690 5688 5685 5679 5674 5670 5665 5659 5653 5648 5643 5637 5633 5629 5625 5621 5619 5618 5615 5612 5608 5605 5601 5596 5592 5588 5584 5581 5577 5573 5570 5567 5565 5563 5560 5558 5555 5552 5548 5545
5690 5687 5683 5683 5681 5678 5673 5669 5664 5660 5655 5650 5645 5639 5634 5631 5627 5622 5618 5614 5611 5608 5605 5601 5597 5592 5588 5584 5580 5576 5573 5569 5565 5561 5558 5556 5554 5552 5549 5547 5544 5541 5537
5683 5680 5677 5675 5672 5669 5666 5662 5658 5654 5650 5645 5640 5632 5626 5624 5622 5618 5613 5609 5606 5602 5599 5594 5590 5585 5580 5576 5571 5567 5564 5560 5555 5552 5549 5547 5545 5543 5541 5538 5536 5532 5529
5674 5672 5669 5667 5664 5659 5657 5654 5651 5647 5643 5638 5634 5627 5621 5618 5616 5612 5608 5604 5599 5595 5592 5587 5582 5578 5573 5568 5564 5559 5554 5550 5547 5543 5540 5538 5537 5535 5533 5530 5527 5524 5521
5666 5663 5660 5658 5655 5653 5649 5646 5644 5641 5637 5632 5627 5622 5617 5613 5609 5606 5602 5598 5593 5589 5584 5579 5575 5571 5566 5561 5555 5550 5546 5542 5538 5536 5533 5530 5529 5527 5525 5522 5519 5517 5514
5659 5656 5653 5650 5648 5645 5642 5639 5636 5632 5628 5623 5619 5615 5611 5607 5603 5600 5596 5591 5587 5582 5578 5573 5568 5563 5559 5554 5548 5543 5539 5535 5531 5528 5525 5523 5522 5520 5518 5515 5512 5510 5507
5650 5648 5645 5642 5640 5637 5634 5630 5627 5624 5619 5615 5612 5608 5604 5601 5597 5593 5589 5584 5580 5575 5571 5566 5561 5556 5551 5546 5541 5537 5533 5529 5525 5522 5518 5516 5515 5513 5511 5508 5505 5502 5499